This is the latest recevied weather packets stored in our database for station/object OK0BH-6. If no packets are shown the sender has not sent any weather packets the latest 10 day(s).
| Time | Temp. | Humidity | Pressure | Rain* | Wind** | Luminosity | Snow |
|---|---|---|---|---|---|---|---|
| 1777772882 | 13.89° C | 31% | 1019 hPa | - | - | - | - |
| 1777772307 | 14.44° C | 31% | 1019 hPa | - | - | - | - |
| 1777771732 | 15° C | 30% | 1019.1 hPa | - | - | - | - |
| 1777771158 | 15.56° C | 30% | 1019 hPa | - | - | - | - |
| 1777770583 | 16.11° C | 30% | 1019 hPa | - | - | - | - |
| 1777770008 | 17.22° C | 29% | 1019.1 hPa | - | - | - | - |
| 1777769433 | 17.78° C | 29% | 1019.3 hPa | - | - | - | - |
| 1777768858 | 17.78° C | 30% | 1019.1 hPa | - | - | - | - |
| 1777768283 | 17.78° C | 29% | 1019.3 hPa | - | - | - | - |
| 1777767708 | 17.78° C | 29% | 1019.4 hPa | - | - | - | - |
| 1777767133 | 18.33° C | 30% | 1019.3 hPa | - | - | - | - |
| 1777766558 | 17.78° C | 29% | 1019.3 hPa | - | - | - | - |
| 1777765984 | 17.78° C | 30% | 1019.4 hPa | - | - | - | - |
| 1777765409 | 17.78° C | 30% | 1019.5 hPa | - | - | - | - |
| 1777764834 | 17.78° C | 29% | 1019.5 hPa | - | - | - | - |
| 1777764259 | 18.33° C | 30% | 1019.5 hPa | - | - | - | - |
| 1777763684 | 18.33° C | 29% | 1019.7 hPa | - | - | - | - |
| 1777763109 | 18.33° C | 30% | 1019.7 hPa | - | - | - | - |
| 1777762534 | 18.33° C | 29% | 1019.8 hPa | - | - | - | - |
| 1777761960 | 18.33° C | 30% | 1019.8 hPa | - | - | - | - |
| 1777761385 | 18.33° C | 29% | 1019.8 hPa | - | - | - | - |
| 1777760810 | 18.33° C | 29% | 1020 hPa | - | - | - | - |
| 1777760235 | 18.89° C | 29% | 1019.9 hPa | - | - | - | - |
| 1777759660 | 18.89° C | 29% | 1020 hPa | - | - | - | - |
| 1777759085 | 18.89° C | 29% | 1020 hPa | - | - | - | - |
* Rain since midnight (hover to see other rain measurements)
** Current wind speed in m/s (hover to see current wind gust speed)